This is the latest recevied weather packets stored in our database for station/object KM6YFK-13. If no packets are shown the sender has not sent any weather packets the latest 10 day(s).
| Time | Temp. | Humidity | Pressure | Rain* | Wind** | Luminosity | Snow |
|---|---|---|---|---|---|---|---|
| 1777497509 | 27.78° C | 67% | 1011.6 hPa | 0 mm | - | 135 W/m² | - |
| 1777497208 | 27.78° C | 66% | 1011.7 hPa | 0 mm | - | 354 W/m² | - |
| 1777496908 | 27.78° C | 65% | 1011.7 hPa | 0 mm | - | 502 W/m² | - |
| 1777496609 | 27.78° C | 64% | 1011.7 hPa | 0 mm | - | 514 W/m² | - |
| 1777496307 | 27.78° C | 65% | 1011.7 hPa | 0 mm | - | 537 W/m² | - |
| 1777496008 | 27.78° C | 65% | 1011.8 hPa | 0 mm | - | 558 W/m² | - |
| 1777495707 | 27.22° C | 65% | 1011.8 hPa | 0 mm | - | 592 W/m² | - |
| 1777495408 | 27.22° C | 66% | 1012 hPa | 0 mm | - | 143 W/m² | - |
| 1777495108 | 27.78° C | 64% | 1012 hPa | 0 mm | - | 141 W/m² | - |
| 1777494808 | 28.33° C | 61% | 1012 hPa | 0 mm | - | 110 W/m² | - |
| 1777494511 | 27.78° C | 61% | 1012 hPa | 0 mm | - | 666 W/m² | - |
| 1777494208 | 27.78° C | 62% | 1012 hPa | 0 mm | - | 498 W/m² | - |
| 1777493908 | 27.78° C | 62% | 1012.2 hPa | 0 mm | - | 267 W/m² | - |
| 1777493607 | 27.78° C | 62% | 1012.4 hPa | 0 mm | - | 307 W/m² | - |
| 1777493309 | 28.33° C | 61% | 1012.4 hPa | 0 mm | - | 177 W/m² | - |
| 1777493008 | 28.33° C | 61% | 1012.5 hPa | 0 mm | - | 761 W/m² | - |
| 1777492708 | 28.33° C | 63% | 1012.6 hPa | 0 mm | - | 222 W/m² | - |
| 1777492409 | 28.89° C | 61% | 1012.8 hPa | 0 mm | - | 802 W/m² | - |
| 1777492114 | 28.89° C | 60% | 1012.8 hPa | 0 mm | - | 767 W/m² | - |
| 1777491808 | 28.89° C | 63% | 1012.9 hPa | 0 mm | - | 793 W/m² | - |
| 1777491508 | 28.89° C | 63% | 1013 hPa | 0 mm | - | 799 W/m² | - |
| 1777491208 | 28.89° C | 62% | 1013.2 hPa | 0 mm | - | 831 W/m² | - |
| 1777490908 | 28.89° C | 63% | 1013.4 hPa | 0 mm | - | 929 W/m² | - |
| 1777490608 | 28.89° C | 61% | 1013.4 hPa | 0 mm | - | 450 W/m² | - |
| 1777490308 | 28.33° C | 62% | 1013.5 hPa | 0 mm | - | 677 W/m² | - |
* Rain latest hour (hover to see other rain measurements)
** Current wind speed in m/s (hover to see current wind gust speed)